SXS3HZ LTBJ-LOWW

Flight info

Callsign SXS3HZ
Flight time 2h 3m
Altitude 36000
Route VEXOL UG802 NEMIS UG18 GIKAS UN133 PEREN UL863 EVIVI L863 OKANA DCT DONIV DCT PARAK DCT BALUX DCT TORNO DCT NATEX NATEX2W
Aircraft B38M/M-SADE2E3GIJ4J7RW/LB1D1

Departure

Time 2026-05-06 21:36
Airport Adnan Menderes International Airport (LTBJ)

Arrival

Time 2026-05-06 23:40
Airport Vienna International Airport (LOWW)
Time Latitude Longitude Altitude Speed Heading
2026-05-06 21:04 38.29720 27.15108 405 ft 0 kts 76°
2026-05-06 21:23 38.29718 27.15095 405 ft 2 kts 76°
2026-05-06 21:23 38.29714 27.15076 405 ft 2 kts 77°
2026-05-06 21:23 38.29711 27.15056 405 ft 2 kts 76°
2026-05-06 21:24 38.29711 27.15034 405 ft 2 kts 115°
2026-05-06 21:24 38.29722 27.15017 405 ft 2 kts 149°
2026-05-06 21:24 38.29730 27.15013 405 ft 1 kts 171°
2026-05-06 21:24 38.29735 27.15011 406 ft 0 kts 166°
2026-05-06 21:25 38.29734 27.15011 406 ft 0 kts 166°
2026-05-06 21:27 38.29722 27.15015 405 ft 3 kts 166°
2026-05-06 21:27 38.29689 27.15025 404 ft 5 kts 166°
2026-05-06 21:27 38.29646 27.15039 402 ft 6 kts 166°
2026-05-06 21:27 38.29598 27.15054 401 ft 6 kts 166°
2026-05-06 21:28 38.29544 27.15070 400 ft 7 kts 166°
2026-05-06 21:28 38.29486 27.15088 399 ft 8 kts 167°
2026-05-06 21:28 38.29429 27.15104 399 ft 7 kts 167°
2026-05-06 21:28 38.29378 27.15120 400 ft 6 kts 167°
2026-05-06 21:29 38.29329 27.15134 400 ft 7 kts 167°
2026-05-06 21:29 38.29268 27.15152 401 ft 9 kts 167°
2026-05-06 21:29 38.29197 27.15174 402 ft 10 kts 166°
2026-05-06 21:29 38.29113 27.15199 403 ft 12 kts 166°
2026-05-06 21:30 38.29021 27.15243 403 ft 14 kts 124°
2026-05-06 21:30 38.28938 27.15319 403 ft 15 kts 168°
2026-05-06 21:30 38.28816 27.15356 402 ft 17 kts 168°
2026-05-06 21:30 38.28683 27.15395 401 ft 17 kts 167°
2026-05-06 21:31 38.28562 27.15432 401 ft 15 kts 167°
2026-05-06 21:31 38.28445 27.15466 398 ft 15 kts 166°
2026-05-06 21:31 38.28331 27.15501 396 ft 15 kts 166°
2026-05-06 21:31 38.28210 27.15538 391 ft 17 kts 166°
2026-05-06 21:32 38.28079 27.15577 386 ft 17 kts 167°
2026-05-06 21:32 38.27867 27.15640 381 ft 7 kts 167°
2026-05-06 21:32 38.27806 27.15658 379 ft 9 kts 166°
2026-05-06 21:33 38.27755 27.15706 377 ft 9 kts 96°
2026-05-06 21:33 38.27768 27.15787 376 ft 8 kts 76°
2026-05-06 21:33 38.27784 27.15865 375 ft 7 kts 76°
2026-05-06 21:33 38.27795 27.15926 376 ft 5 kts 77°
2026-05-06 21:34 38.27803 27.15971 376 ft 4 kts 77°
2026-05-06 21:34 38.27809 27.16003 376 ft 3 kts 77°
2026-05-06 21:34 38.27813 27.16030 376 ft 3 kts 77°
2026-05-06 21:34 38.27823 27.16085 378 ft 5 kts 77°
2026-05-06 21:35 38.27835 27.16110 379 ft 2 kts 21°
2026-05-06 21:35 38.27860 27.16109 379 ft 5 kts 351°
2026-05-06 21:35 38.28080 27.16043 384 ft 69 kts 346°
2026-05-06 21:35 38.28781 27.15833 402 ft 134 kts 346°
2026-05-06 21:36 38.29899 27.15489 528 ft 177 kts 346°
2026-05-06 21:36 38.31151 27.15149 1446 ft 174 kts 347°
2026-05-06 21:36 38.32446 27.14763 2111 ft 189 kts 346°
2026-05-06 21:36 38.33844 27.14315 2827 ft 202 kts 347°
2026-05-06 21:37 38.35386 27.13843 3513 ft 221 kts 347°
2026-05-06 21:37 38.37042 27.13178 4270 ft 240 kts 333°
2026-05-06 21:37 38.38394 27.11631 5103 ft 255 kts 302°
2026-05-06 21:37 38.38999 27.09290 5878 ft 272 kts 276°
2026-05-06 21:38 38.38970 27.06756 6812 ft 279 kts 269°
2026-05-06 21:38 38.38836 27.04102 7789 ft 282 kts 269°
2026-05-06 21:38 38.38714 27.01489 8734 ft 285 kts 270°
2026-05-06 21:38 38.38600 26.98894 9626 ft 287 kts 270°
2026-05-06 21:39 38.38485 26.96256 10449 ft 291 kts 270°
2026-05-06 21:39 38.38370 26.93572 10931 ft 306 kts 270°
2026-05-06 21:39 38.38248 26.90732 11399 ft 320 kts 270°
2026-05-06 21:39 38.38118 26.87773 11844 ft 335 kts 270°
2026-05-06 21:40 38.37979 26.84661 12254 ft 350 kts 270°
2026-05-06 21:40 38.37828 26.81334 12645 ft 365 kts 270°
2026-05-06 21:40 38.37672 26.77933 12964 ft 380 kts 269°
2026-05-06 21:40 38.37513 26.74472 13371 ft 390 kts 269°
2026-05-06 21:41 38.37342 26.70837 14004 ft 394 kts 269°
2026-05-06 21:41 38.37174 26.67276 14622 ft 397 kts 269°
2026-05-06 21:41 38.37006 26.63741 15230 ft 399 kts 269°
2026-05-06 21:41 38.36837 26.60174 15813 ft 402 kts 270°
2026-05-06 21:42 38.36666 26.56595 16364 ft 405 kts 270°
2026-05-06 21:42 38.36495 26.53017 16915 ft 408 kts 270°
2026-05-06 21:42 38.36320 26.49379 17475 ft 410 kts 270°
2026-05-06 21:42 38.36142 26.45710 17994 ft 413 kts 270°
2026-05-06 21:43 38.35963 26.42029 18505 ft 416 kts 270°
2026-05-06 21:43 38.35783 26.38364 19027 ft 418 kts 270°
2026-05-06 21:43 38.35598 26.34621 19525 ft 420 kts 270°
2026-05-06 21:43 38.35413 26.30885 20009 ft 423 kts 270°
2026-05-06 21:44 38.35226 26.27147 20451 ft 426 kts 270°
2026-05-06 21:44 38.35035 26.23271 20984 ft 426 kts 270°
2026-05-06 21:44 38.34951 26.19348 21419 ft 428 kts 274°
2026-05-06 21:44 38.35059 26.15431 21904 ft 428 kts 277°
2026-05-06 21:45 38.35273 26.11497 22316 ft 430 kts 278°
2026-05-06 21:45 38.35519 26.07721 22739 ft 431 kts 278°
2026-05-06 21:45 38.35781 26.03823 23119 ft 434 kts 278°
2026-05-06 21:45 38.36033 26.00013 23544 ft 436 kts 278°
2026-05-06 21:46 38.36280 25.96171 23856 ft 440 kts 278°
2026-05-06 21:46 38.36523 25.92274 24299 ft 441 kts 278°
2026-05-06 21:46 38.36899 25.88407 24641 ft 442 kts 283°
2026-05-06 21:46 38.37619 25.84644 25057 ft 440 kts 291°
2026-05-06 21:47 38.38819 25.81014 25366 ft 440 kts 300°
2026-05-06 21:47 38.40401 25.77669 25732 ft 440 kts 306°
2026-05-06 21:47 38.42218 25.74554 26082 ft 441 kts 311°
2026-05-06 21:47 38.44368 25.71726 26527 ft 439 kts 319°
2026-05-06 21:48 38.46731 25.69226 27133 ft 435 kts 322°
2026-05-06 21:48 38.49153 25.66909 27613 ft 434 kts 324°
2026-05-06 21:48 38.51583 25.64658 28032 ft 433 kts 324°
2026-05-06 21:48 38.54035 25.62389 28474 ft 432 kts 324°
2026-05-06 21:49 38.56456 25.60125 28926 ft 431 kts 323°
2026-05-06 21:49 38.58844 25.57861 29357 ft 429 kts 323°
2026-05-06 21:49 38.61214 25.55587 29819 ft 427 kts 323°
2026-05-06 21:49 38.63592 25.53284 30162 ft 428 kts 323°
2026-05-06 21:50 38.65985 25.50948 30550 ft 427 kts 323°
2026-05-06 21:50 38.68343 25.48632 30965 ft 425 kts 323°
2026-05-06 21:50 38.70654 25.46355 31373 ft 424 kts 323°
2026-05-06 21:50 38.72996 25.44043 31733 ft 423 kts 323°
2026-05-06 21:51 38.75372 25.41693 32070 ft 423 kts 323°
2026-05-06 21:51 38.77692 25.39395 32460 ft 421 kts 323°
2026-05-06 21:51 38.80034 25.37070 32765 ft 422 kts 323°
2026-05-06 21:51 38.82345 25.34775 33107 ft 421 kts 322°
2026-05-06 21:52 38.84684 25.32449 33423 ft 421 kts 322°
2026-05-06 21:52 38.86991 25.30155 33748 ft 420 kts 322°
2026-05-06 21:52 38.89343 25.27812 34087 ft 419 kts 322°
2026-05-06 21:52 38.91660 25.25502 34449 ft 417 kts 322°
2026-05-06 21:53 38.93968 25.23200 34699 ft 417 kts 322°
2026-05-06 21:53 38.96282 25.20888 34958 ft 416 kts 322°
2026-05-06 21:53 38.98585 25.18586 35188 ft 416 kts 322°
2026-05-06 21:53 39.00911 25.16260 35434 ft 416 kts 322°
2026-05-06 21:54 39.03243 25.13925 35649 ft 416 kts 322°
2026-05-06 21:54 39.05537 25.11628 35830 ft 417 kts 322°
2026-05-06 21:54 39.07879 25.09282 36014 ft 418 kts 322°
2026-05-06 21:54 39.10220 25.06934 36046 ft 421 kts 322°
2026-05-06 21:55 39.14944 25.02184 36049 ft 417 kts 322°
2026-05-06 21:55 39.19560 24.97537 36051 ft 416 kts 322°
2026-05-06 21:56 39.24203 24.92857 36051 ft 416 kts 322°
2026-05-06 21:56 39.28778 24.88239 36051 ft 416 kts 322°
2026-05-06 21:57 39.33326 24.83638 36046 ft 416 kts 322°
2026-05-06 21:57 39.37888 24.79011 36046 ft 415 kts 322°
2026-05-06 21:58 39.42453 24.74377 36046 ft 415 kts 322°
2026-05-06 21:58 39.46968 24.69799 36046 ft 416 kts 322°
2026-05-06 21:59 39.51754 24.65605 36053 ft 415 kts 330°
2026-05-06 21:59 39.56928 24.62170 36053 ft 417 kts 333°
2026-05-06 22:00 39.62195 24.58935 36059 ft 416 kts 333°
2026-05-06 22:00 39.67411 24.55722 36062 ft 416 kts 333°
2026-05-06 22:01 39.72700 24.52423 36060 ft 415 kts 333°
2026-05-06 22:01 39.77957 24.49116 36068 ft 416 kts 333°
2026-05-06 22:02 39.83206 24.45799 36069 ft 415 kts 333°
2026-05-06 22:02 39.88471 24.42463 36068 ft 416 kts 333°
2026-05-06 22:03 39.93703 24.39144 36072 ft 414 kts 333°
2026-05-06 22:03 39.98986 24.35787 36074 ft 414 kts 333°
2026-05-06 22:04 40.04263 24.32428 36068 ft 415 kts 332°
2026-05-06 22:04 40.09551 24.29056 36075 ft 415 kts 332°
2026-05-06 22:05 40.14912 24.25632 36074 ft 415 kts 332°
2026-05-06 22:05 40.20319 24.22173 36071 ft 414 kts 332°
2026-05-06 22:06 40.25721 24.18708 36075 ft 415 kts 332°
2026-05-06 22:06 40.31258 24.15150 36076 ft 416 kts 332°
2026-05-06 22:07 40.36787 24.11595 36071 ft 415 kts 332°
2026-05-06 22:07 40.42056 24.08200 36070 ft 414 kts 332°
2026-05-06 22:08 40.47253 24.04845 36072 ft 415 kts 332°
2026-05-06 22:08 40.52449 24.01484 36070 ft 415 kts 332°
2026-05-06 22:09 40.57703 23.98077 36064 ft 415 kts 332°
2026-05-06 22:09 40.63446 23.94385 36065 ft 415 kts 332°
2026-05-06 22:10 40.69290 23.90727 36067 ft 415 kts 333°
2026-05-06 22:10 40.75133 23.87072 36067 ft 415 kts 333°
2026-05-06 22:11 40.80991 23.83389 36065 ft 415 kts 333°
2026-05-06 22:11 40.86831 23.79704 36071 ft 414 kts 333°
2026-05-06 22:12 40.92679 23.76004 36068 ft 414 kts 333°
2026-05-06 22:12 40.98481 23.72326 36071 ft 414 kts 332°
2026-05-06 22:13 41.04251 23.68657 36071 ft 414 kts 332°
2026-05-06 22:13 41.10039 23.64975 36067 ft 414 kts 333°
2026-05-06 22:14 41.15763 23.61324 36080 ft 415 kts 333°
2026-05-06 22:14 41.21582 23.57603 36092 ft 415 kts 333°
2026-05-06 22:15 41.27408 23.53865 36099 ft 416 kts 333°
2026-05-06 22:15 41.33232 23.50116 36095 ft 417 kts 333°
2026-05-06 22:16 41.38985 23.46412 36085 ft 415 kts 333°
2026-05-06 22:16 41.44737 23.42689 36086 ft 415 kts 332°
2026-05-06 22:17 41.50365 23.39020 36076 ft 415 kts 332°
2026-05-06 22:17 41.56060 23.35298 36079 ft 415 kts 332°
2026-05-06 22:18 41.61630 23.31650 36090 ft 415 kts 331°
2026-05-06 22:18 41.67316 23.27915 36096 ft 417 kts 332°
2026-05-06 22:19 41.73206 23.24050 36093 ft 415 kts 332°
2026-05-06 22:19 41.78988 23.20248 36107 ft 416 kts 332°
2026-05-06 22:20 41.84781 23.16431 36109 ft 416 kts 332°
2026-05-06 22:20 41.90478 23.12669 36110 ft 418 kts 332°
2026-05-06 22:21 41.96136 23.08923 36103 ft 418 kts 332°
2026-05-06 22:21 42.01718 23.05219 36099 ft 415 kts 332°
2026-05-06 22:22 42.07385 23.01449 36089 ft 411 kts 332°
2026-05-06 22:22 42.12995 22.97711 36076 ft 414 kts 331°
2026-05-06 22:23 42.18761 22.93866 36065 ft 414 kts 332°
2026-05-06 22:23 42.24562 22.89985 36066 ft 413 kts 332°
2026-05-06 22:24 42.30278 22.86153 36065 ft 414 kts 331°
2026-05-06 22:24 42.36029 22.82297 36177 ft 417 kts 332°
2026-05-06 22:25 42.38903 22.80364 36063 ft 412 kts 331°
2026-05-06 22:25 42.41739 22.78453 36062 ft 413 kts 331°
2026-05-06 22:25 42.44660 22.76483 35870 ft 414 kts 331°
2026-05-06 22:25 42.47478 22.74581 36044 ft 415 kts 331°
2026-05-06 22:26 42.53359 22.70605 36058 ft 419 kts 331°
2026-05-06 22:26 42.58817 22.66914 36083 ft 413 kts 331°
2026-05-06 22:27 42.64325 22.63179 36085 ft 416 kts 331°
2026-05-06 22:27 42.69874 22.59402 36087 ft 419 kts 332°
2026-05-06 22:28 42.72615 22.57533 35893 ft 418 kts 331°
2026-05-06 22:28 42.75344 22.55674 36068 ft 418 kts 331°
2026-05-06 22:28 42.80838 22.51926 36094 ft 421 kts 331°
2026-05-06 22:29 42.86356 22.48159 36091 ft 419 kts 331°
2026-05-06 22:29 42.89047 22.46339 36204 ft 422 kts 332°
2026-05-06 22:29 42.91849 22.44454 36537 ft 420 kts 332°
2026-05-06 22:30 42.94633 22.42586 36822 ft 420 kts 331°
2026-05-06 22:30 42.97456 22.40691 37102 ft 421 kts 332°
2026-05-06 22:30 43.00225 22.38824 37394 ft 421 kts 331°
2026-05-06 22:30 43.03014 22.36939 38015 ft 420 kts 331°
2026-05-06 22:31 43.08507 22.33227 38045 ft 418 kts 331°
2026-05-06 22:31 43.14082 22.29455 38043 ft 416 kts 330°
2026-05-06 22:32 43.19672 22.25661 38032 ft 418 kts 331°
2026-05-06 22:32 43.25234 22.21876 38025 ft 417 kts 330°
2026-05-06 22:33 43.30737 22.18132 38024 ft 419 kts 330°
2026-05-06 22:33 43.36327 22.14310 38023 ft 418 kts 330°
2026-05-06 22:34 43.41916 22.10476 38024 ft 418 kts 330°
2026-05-06 22:34 43.47496 22.06645 38020 ft 416 kts 330°
2026-05-06 22:35 43.53031 22.02831 38019 ft 416 kts 330°
2026-05-06 22:35 43.58451 21.99096 38092 ft 423 kts 330°
2026-05-06 22:36 43.64224 21.95112 38010 ft 413 kts 330°
2026-05-06 22:36 43.69972 21.91128 38020 ft 418 kts 330°
2026-05-06 22:37 43.75444 21.87327 38022 ft 419 kts 330°
2026-05-06 22:37 43.81132 21.83389 38026 ft 417 kts 330°
2026-05-06 22:38 43.86956 21.79334 38028 ft 418 kts 330°
2026-05-06 22:38 43.92772 21.75281 38040 ft 418 kts 330°
2026-05-06 22:39 43.95625 21.73288 37744 ft 418 kts 330°
2026-05-06 22:39 43.98458 21.71303 38033 ft 416 kts 330°
2026-05-06 22:39 44.04108 21.67334 38022 ft 422 kts 330°
2026-05-06 22:40 44.09832 21.63314 38004 ft 421 kts 330°
2026-05-06 22:40 44.15440 21.59373 37993 ft 423 kts 330°
2026-05-06 22:41 44.23899 21.53399 37988 ft 422 kts 329°
2026-05-06 22:42 44.29536 21.49413 37975 ft 424 kts 329°
2026-05-06 22:42 44.35188 21.45393 37971 ft 424 kts 329°
2026-05-06 22:43 44.40831 21.41374 37965 ft 427 kts 329°
2026-05-06 22:43 44.46586 21.37276 37966 ft 423 kts 330°
2026-05-06 22:44 44.52167 21.33291 37962 ft 426 kts 328°
2026-05-06 22:44 44.57733 21.29309 37960 ft 425 kts 328°
2026-05-06 22:45 44.63299 21.25321 37960 ft 428 kts 329°
2026-05-06 22:45 44.68905 21.21301 37953 ft 425 kts 329°
2026-05-06 22:46 44.74493 21.17276 37950 ft 428 kts 329°
2026-05-06 22:46 44.80132 21.13152 37939 ft 426 kts 328°
2026-05-06 22:47 44.85744 21.08971 37943 ft 428 kts 328°
2026-05-06 22:47 44.91341 21.04779 37931 ft 429 kts 328°
2026-05-06 22:48 44.96993 21.00569 37935 ft 428 kts 328°
2026-05-06 22:48 45.02671 20.96342 37937 ft 429 kts 328°
2026-05-06 22:49 45.08022 20.92356 37943 ft 429 kts 328°
2026-05-06 22:49 45.13308 20.88392 37946 ft 430 kts 328°
2026-05-06 22:50 45.18608 20.84402 37941 ft 430 kts 328°
2026-05-06 22:50 45.23911 20.80413 37947 ft 432 kts 328°
2026-05-06 22:51 45.29188 20.76442 37945 ft 431 kts 328°
2026-05-06 22:51 45.34467 20.72457 37935 ft 432 kts 328°
2026-05-06 22:52 45.39966 20.68290 37928 ft 432 kts 328°
2026-05-06 22:52 45.45932 20.63763 37924 ft 431 kts 328°
2026-05-06 22:53 45.51958 20.59177 37926 ft 434 kts 328°
2026-05-06 22:53 45.57838 20.54699 37928 ft 432 kts 328°
2026-05-06 22:54 45.63149 20.50633 37934 ft 434 kts 328°
2026-05-06 22:54 45.68481 20.46545 37931 ft 434 kts 328°
2026-05-06 22:55 45.73854 20.42417 37933 ft 435 kts 328°
2026-05-06 22:55 45.79413 20.38141 37940 ft 435 kts 328°
2026-05-06 22:56 45.85096 20.33769 37935 ft 436 kts 327°
2026-05-06 22:56 45.90799 20.29363 37934 ft 435 kts 327°
2026-05-06 22:57 45.96426 20.24997 37940 ft 437 kts 327°
2026-05-06 22:57 46.02042 20.20632 37933 ft 437 kts 327°
2026-05-06 22:58 46.07563 20.16335 37931 ft 437 kts 327°
2026-05-06 22:58 46.13086 20.12027 37927 ft 437 kts 327°
2026-05-06 22:59 46.18635 20.07678 37926 ft 437 kts 326°
2026-05-06 22:59 46.24310 20.03138 37926 ft 439 kts 326°
2026-05-06 23:00 46.29945 19.98596 37925 ft 438 kts 327°
2026-05-06 23:00 46.35608 19.94026 37926 ft 439 kts 326°
2026-05-06 23:01 46.41342 19.89391 37924 ft 439 kts 327°
2026-05-06 23:01 46.47020 19.84796 37918 ft 437 kts 326°
2026-05-06 23:02 46.52784 19.80122 37915 ft 438 kts 327°
2026-05-06 23:02 46.58515 19.75471 37917 ft 438 kts 326°
2026-05-06 23:03 46.64572 19.70542 37913 ft 440 kts 326°
2026-05-06 23:03 46.70630 19.65587 37919 ft 440 kts 327°
2026-05-06 23:04 46.76636 19.60664 37917 ft 440 kts 326°
2026-05-06 23:04 46.82709 19.55681 37909 ft 442 kts 327°
2026-05-06 23:05 46.88543 19.50876 37909 ft 442 kts 327°
2026-05-06 23:05 46.94089 19.46298 37921 ft 443 kts 327°
2026-05-06 23:06 46.99755 19.41613 37922 ft 441 kts 326°
2026-05-06 23:06 47.05371 19.36958 37925 ft 443 kts 326°
2026-05-06 23:07 47.11060 19.32226 37917 ft 444 kts 326°
2026-05-06 23:07 47.14831 19.29085 37916 ft 443 kts 326°
2026-05-06 23:08 47.28228 19.17885 37907 ft 444 kts 324°
2026-05-06 23:09 47.33118 19.12477 37919 ft 435 kts 309°
2026-05-06 23:09 47.36514 19.05213 37920 ft 427 kts 294°
2026-05-06 23:10 47.39196 18.97031 37913 ft 423 kts 291°
2026-05-06 23:10 47.41732 18.88759 37909 ft 426 kts 290°
2026-05-06 23:11 47.44230 18.80634 37897 ft 425 kts 291°
2026-05-06 23:11 47.46694 18.72660 37610 ft 414 kts 291°
2026-05-06 23:11 47.47893 18.68779 36930 ft 415 kts 291°
2026-05-06 23:12 47.49111 18.64838 36331 ft 415 kts 291°
2026-05-06 23:12 47.50334 18.60874 35658 ft 418 kts 291°
2026-05-06 23:12 47.51579 18.56828 34689 ft 426 kts 290°
2026-05-06 23:12 47.52815 18.52811 34049 ft 423 kts 291°
2026-05-06 23:13 47.54017 18.48797 33343 ft 423 kts 289°
2026-05-06 23:13 47.55083 18.44588 32555 ft 422 kts 285°
2026-05-06 23:13 47.56010 18.40380 31552 ft 427 kts 284°
2026-05-06 23:13 47.56897 18.36079 30823 ft 426 kts 283°
2026-05-06 23:14 47.57764 18.31807 30035 ft 427 kts 283°
2026-05-06 23:14 47.58647 18.27474 28825 ft 436 kts 283°
2026-05-06 23:14 47.59552 18.23071 28081 ft 434 kts 283°
2026-05-06 23:14 47.60460 18.18698 27224 ft 437 kts 284°
2026-05-06 23:15 47.61382 18.14272 25864 ft 448 kts 284°
2026-05-06 23:15 47.62319 18.09786 25050 ft 446 kts 284°
2026-05-06 23:15 47.63241 18.05387 24078 ft 447 kts 284°
2026-05-06 23:15 47.64180 18.00902 23096 ft 447 kts 284°
2026-05-06 23:16 47.65123 17.96407 22484 ft 437 kts 284°
2026-05-06 23:16 47.66042 17.92019 21648 ft 434 kts 284°
2026-05-06 23:16 47.66935 17.87741 20756 ft 433 kts 284°
2026-05-06 23:16 47.67813 17.83525 20198 ft 423 kts 284°
2026-05-06 23:17 47.68680 17.79358 19303 ft 424 kts 284°
2026-05-06 23:17 47.69550 17.75151 18497 ft 420 kts 284°
2026-05-06 23:17 47.70410 17.70982 17931 ft 412 kts 284°
2026-05-06 23:17 47.71261 17.66848 16966 ft 414 kts 284°
2026-05-06 23:18 47.72123 17.62643 16231 ft 409 kts 284°
2026-05-06 23:18 47.72962 17.58552 15631 ft 402 kts 284°
2026-05-06 23:18 47.73748 17.54414 14835 ft 398 kts 281°
2026-05-06 23:18 47.74256 17.50209 14136 ft 389 kts 273°
2026-05-06 23:19 47.74353 17.46054 13894 ft 378 kts 266°
2026-05-06 23:19 47.74185 17.41848 13806 ft 382 kts 263°
2026-05-06 23:19 47.73913 17.37775 13562 ft 381 kts 262°
2026-05-06 23:19 47.73594 17.33576 13296 ft 380 kts 261°
2026-05-06 23:20 47.73272 17.29412 13030 ft 378 kts 261°
2026-05-06 23:20 47.72953 17.25201 12761 ft 376 kts 261°
2026-05-06 23:20 47.72643 17.21040 12491 ft 375 kts 261°
2026-05-06 23:20 47.72334 17.16774 12217 ft 375 kts 262°
2026-05-06 23:21 47.72287 17.12380 11936 ft 376 kts 273°
2026-05-06 23:21 47.73037 17.08256 11753 ft 379 kts 292°
2026-05-06 23:21 47.74619 17.04655 11755 ft 387 kts 306°
2026-05-06 23:21 47.76708 17.01513 11760 ft 392 kts 316°
2026-05-06 23:22 47.79073 16.99096 11755 ft 397 kts 326°
2026-05-06 23:22 47.81575 16.97127 11754 ft 396 kts 330°
2026-05-06 23:22 47.84083 16.95358 11744 ft 375 kts 332°
2026-05-06 23:22 47.86411 16.93750 11746 ft 354 kts 331°
2026-05-06 23:23 47.88706 16.92135 11716 ft 334 kts 330°
2026-05-06 23:23 47.90866 16.90568 11731 ft 315 kts 329°
2026-05-06 23:23 47.92902 16.89051 11720 ft 298 kts 328°
2026-05-06 23:23 47.94808 16.87600 11709 ft 291 kts 328°
2026-05-06 23:24 47.96758 16.86093 11689 ft 292 kts 328°
2026-05-06 23:24 47.98649 16.84633 11466 ft 288 kts 328°
2026-05-06 23:24 48.00541 16.83180 11372 ft 287 kts 328°
2026-05-06 23:24 48.02460 16.81703 11307 ft 293 kts 328°
2026-05-06 23:25 48.04467 16.80158 11090 ft 292 kts 329°
2026-05-06 23:25 48.06421 16.78660 10900 ft 289 kts 328°
2026-05-06 23:25 48.08342 16.77183 10648 ft 289 kts 329°
2026-05-06 23:25 48.10264 16.75704 10367 ft 287 kts 329°
2026-05-06 23:26 48.12183 16.74225 10084 ft 285 kts 329°
2026-05-06 23:26 48.14060 16.72777 9823 ft 284 kts 329°
2026-05-06 23:26 48.15943 16.71323 9567 ft 284 kts 329°
2026-05-06 23:26 48.17697 16.69966 9309 ft 282 kts 329°
2026-05-06 23:27 48.19488 16.68583 9055 ft 280 kts 329°
2026-05-06 23:27 48.21296 16.67184 8827 ft 278 kts 329°
2026-05-06 23:27 48.23173 16.65964 8619 ft 280 kts 338°
2026-05-06 23:27 48.25189 16.65063 8416 ft 280 kts 342°
2026-05-06 23:28 48.27115 16.64315 8235 ft 279 kts 342°
2026-05-06 23:28 48.29014 16.63574 8215 ft 276 kts 342°
2026-05-06 23:28 48.30888 16.62809 8213 ft 278 kts 341°
2026-05-06 23:28 48.32807 16.62005 8156 ft 279 kts 341°
2026-05-06 23:29 48.34747 16.61184 7784 ft 281 kts 341°
2026-05-06 23:29 48.36703 16.60357 7345 ft 282 kts 341°
2026-05-06 23:29 48.38662 16.59531 6907 ft 282 kts 341°
2026-05-06 23:29 48.40662 16.58687 6449 ft 282 kts 341°
2026-05-06 23:30 48.42683 16.57833 5976 ft 283 kts 341°
2026-05-06 23:30 48.44656 16.56998 5517 ft 282 kts 341°
2026-05-06 23:30 48.46636 16.56160 5225 ft 275 kts 341°
2026-05-06 23:30 48.48572 16.55345 5186 ft 258 kts 340°
2026-05-06 23:31 48.50350 16.54584 5182 ft 245 kts 338°
2026-05-06 23:31 48.51964 16.53440 5182 ft 240 kts 318°
2026-05-06 23:31 48.53017 16.51350 5183 ft 233 kts 289°
2026-05-06 23:31 48.53351 16.48853 5188 ft 231 kts 272°
2026-05-06 23:32 48.53191 16.46314 5186 ft 230 kts 257°
2026-05-06 23:32 48.52395 16.44065 5181 ft 235 kts 228°
2026-05-06 23:32 48.50879 16.42734 5181 ft 244 kts 198°
2026-05-06 23:32 48.49100 16.42544 5188 ft 251 kts 181°
2026-05-06 23:33 48.47361 16.42914 5187 ft 253 kts 173°
2026-05-06 23:33 48.45563 16.43567 5180 ft 248 kts 169°
2026-05-06 23:33 48.43833 16.44301 5174 ft 238 kts 169°
2026-05-06 23:33 48.42160 16.45024 5173 ft 234 kts 169°
2026-05-06 23:34 48.40562 16.45708 5182 ft 218 kts 169°
2026-05-06 23:34 48.38983 16.46381 5176 ft 213 kts 170°
2026-05-06 23:34 48.37467 16.47019 5177 ft 214 kts 170°
2026-05-06 23:34 48.35931 16.47674 5177 ft 213 kts 169°
2026-05-06 23:35 48.34368 16.48344 5164 ft 214 kts 169°
2026-05-06 23:35 48.32850 16.48991 5002 ft 210 kts 169°
2026-05-06 23:35 48.31357 16.49626 4588 ft 212 kts 170°
2026-05-06 23:35 48.29864 16.50258 4272 ft 209 kts 170°
2026-05-06 23:36 48.28386 16.50884 3959 ft 206 kts 170°
2026-05-06 23:36 48.26924 16.51506 3657 ft 203 kts 170°
2026-05-06 23:36 48.25563 16.52085 3373 ft 200 kts 170°
2026-05-06 23:36 48.24156 16.52679 3084 ft 197 kts 170°
2026-05-06 23:37 48.22806 16.53252 2800 ft 190 kts 170°
2026-05-06 23:37 48.21524 16.53799 2545 ft 180 kts 171°
2026-05-06 23:37 48.20312 16.54308 2319 ft 170 kts 170°
2026-05-06 23:37 48.19149 16.54798 2047 ft 163 kts 170°
2026-05-06 23:38 48.17984 16.55288 1827 ft 165 kts 169°
2026-05-06 23:38 48.16830 16.55777 1592 ft 164 kts 168°
2026-05-06 23:38 48.15699 16.56253 1363 ft 163 kts 168°
2026-05-06 23:38 48.14588 16.56726 1169 ft 160 kts 167°
2026-05-06 23:39 48.13499 16.57190 968 ft 157 kts 168°
2026-05-06 23:39 48.12374 16.57657 737 ft 156 kts 167°
2026-05-06 23:39 48.11266 16.58120 594 ft 142 kts 167°
2026-05-06 23:39 48.10524 16.58431 600 ft 59 kts 164°
2026-05-06 23:40 48.10276 16.58451 600 ft 28 kts 193°
2026-05-06 23:40 48.10165 16.58410 601 ft 0 kts 195°
2026-05-06 23:40 48.10159 16.58407 601 ft 1 kts 195°
2026-05-06 23:41 48.10150 16.58404 601 ft 1 kts 195°
2026-05-06 23:41 48.10142 16.58398 601 ft 1 kts 220°
2026-05-06 23:41 48.10135 16.58364 602 ft 4 kts 270°
2026-05-06 23:41 48.10144 16.58330 603 ft 3 kts 307°
2026-05-06 23:42 48.10178 16.58299 603 ft 8 kts 342°
2026-05-06 23:42 48.10258 16.58263 604 ft 15 kts 343°
2026-05-06 23:42 48.10381 16.58213 604 ft 21 kts 345°
2026-05-06 23:42 48.10537 16.58143 602 ft 23 kts 343°
2026-05-06 23:43 48.10694 16.58081 600 ft 22 kts 345°
2026-05-06 23:43 48.10844 16.58016 599 ft 22 kts 343°
2026-05-06 23:43 48.10989 16.57954 597 ft 19 kts 345°
2026-05-06 23:43 48.11090 16.57898 596 ft 14 kts 319°
2026-05-06 23:44 48.11138 16.57775 597 ft 12 kts 296°
2026-05-06 23:44 48.11176 16.57658 596 ft 12 kts 296°
2026-05-06 23:44 48.11211 16.57552 598 ft 10 kts 296°
2026-05-06 23:44 48.11238 16.57469 600 ft 8 kts 296°
2026-05-06 23:45 48.11270 16.57366 602 ft 13 kts 295°
2026-05-06 23:45 48.11317 16.57225 605 ft 17 kts 296°
2026-05-06 23:45 48.11369 16.57058 606 ft 17 kts 295°
2026-05-06 23:45 48.11420 16.56907 606 ft 15 kts 296°
2026-05-06 23:46 48.11467 16.56758 604 ft 15 kts 296°
2026-05-06 23:46 48.11517 16.56609 601 ft 16 kts 296°
2026-05-06 23:46 48.11567 16.56454 598 ft 17 kts 296°
2026-05-06 23:46 48.11625 16.56279 592 ft 19 kts 296°
2026-05-06 23:47 48.11687 16.56093 588 ft 18 kts 294°
2026-05-06 23:47 48.11721 16.55984 586 ft 5 kts 296°
2026-05-06 23:47 48.11738 16.55979 586 ft 3 kts 45°
2026-05-06 23:47 48.11753 16.55997 586 ft 2 kts 38°
2026-05-06 23:48 48.11764 16.56010 586 ft 1 kts 39°
2026-05-06 23:48 48.11773 16.56021 587 ft 1 kts 40°
2026-05-06 23:48 48.11780 16.56030 587 ft 0 kts 39°
2026-05-06 23:48 48.11781 16.56031 587 ft 0 kts 39°